GW0548 Weather Reports


time (UTC)temp
F
wind
direction
speed
knots
gust
knots
rain 1hr
in
rain 24hr
in
rain mn
in
humidity
%
barometer
mb
20260505152828 83 135 1.7 6.1 0.00 0.00 0.00 67 1018.6
20260505151825 79 55 1.7 6.1 0.00 0.00 0.00 72 1018.6
20260505150825 80 69 0.0 5.2 0.00 0.00 0.00 76 1018.5
20260505124748 73 90 1.7 3.5 0.00 0.00 0.00 85 1018.2
20260505123746 72 127 1.7 2.6 0.00 0.00 0.00 86 1018.1
20260505122745 71 107 3.5 3.5 0.00 0.00 0.00 86 1018.1
20260505121745 70 90 0.0 2.6 0.00 0.00 0.00 88 1018.0
20260505120743 68 90 0.9 2.6 0.00 0.00 0.00 90 1018.1
20260505115739 67 70 1.7 2.6 0.00 0.00 0.00 91 1017.9
20260505114734 66 135 0.0 2.6 0.00 0.00 0.00 92 1017.7
20260505113732 64 80 1.7 2.6 0.00 0.00 0.00 95 1017.9
20260505112731 63 84 1.7 2.6 0.00 0.00 0.00 98 1017.6
20260505111728 62 90 0.0 0.9 0.00 0.00 0.00 99 1017.7
20260505110726 61 90 0.0 0.0 0.00 0.00 0.00 99 1017.3
20260505101716 60 8 0.0 0.0 0.00 0.00 0.00 99 1016.8
20260505100714 60 81 0.0 0.9 0.00 0.00 0.00 99 1017.1
20260505095712 60 8 0.0 0.9 0.00 0.00 0.00 99 1016.8
20260505094712 60 57 0.0 1.7 0.00 0.00 0.00 99 1016.9
20260505093710 60 90 0.0 0.9 0.00 0.00 0.00 99 1017.0
20260505092710 61 35 0.0 0.9 0.00 0.00 0.00 99 1016.8
20260505091705 61 71 0.0 0.9 0.00 0.00 0.00 99 1016.8
20260505090701 62 0 0.0 0.0 0.00 0.00 0.00 99 1016.5
20260505085656 62 72 0.0 1.7 0.00 0.00 0.00 99 1016.3
20260505084651 62 90 0.0 1.7 0.00 0.00 0.00 99 1016.4
20260505083647 62 82 0.9 1.7 0.00 0.00 0.00 99 1016.7
20260505082645 61 90 0.0 0.0 0.00 0.00 0.00 99 1016.6
20260505081644 61 74 0.0 0.9 0.00 0.00 0.00 99 1016.5
20260505080644 62 90 0.0 0.0 0.00 0.00 0.00 99 1016.4
20260505075642 62 111 0.0 0.0 0.00 0.00 0.00 98 1016.5
20260505074642 62 90 0.9 1.7 0.00 0.00 0.00 98 1016.5
20260505073643 62 81 0.0 0.9 0.00 0.00 0.00 98 1016.6
20260505072641 62 99 0.0 0.0 0.00 0.00 0.00 97 1016.7
20260505071640 62 81 0.0 0.0 0.00 0.00 0.00 97 1016.7
20260505070635 63 60 0.0 0.9 0.00 0.00 0.00 98 1016.9
20260505065633 63 90 0.0 0.0 0.00 0.00 0.00 96 1016.8
20260505064632 63 81 0.0 0.9 0.00 0.00 0.00 96 1016.9
20260505063628 63 90 0.0 0.0 0.00 0.00 0.00 94 1017.1
20260505062626 63 105 0.9 1.7 0.00 0.00 0.00 94 1017.0
20260505061626 63 82 0.0 1.7 0.00 0.00 0.00 94 1017.4
20260505060622 63 90 0.0 1.7 0.00 0.00 0.00 94 1017.3
20260505055619 63 74 0.9 0.9 0.00 0.00 0.00 95 1017.5
20260505054619 63 102 1.7 1.7 0.00 0.00 0.00 94 1017.5
20260505053614 64 90 0.0 0.0 0.00 0.00 0.00 92 1017.6
20260505052613 64 90 0.0 0.0 0.00 0.00 0.00 92 1017.8
20260505051614 65 90 0.0 0.9 0.00 0.00 0.00 90 1017.9
20260505050609 65 99 0.0 1.7 0.00 0.00 0.00 90 1017.8
20260505041606 66 90 0.0 2.6 0.00 0.00 0.00 86 1018.4
20260505040601 66 90 0.0 0.0 0.00 0.00 0.00 84 1018.6
20260505035600 67 114 0.9 1.7 0.00 0.00 0.00 82 1018.5
20260505034559 67 90 0.0 1.7 0.00 0.00 0.00 81 1018.5
20260505033558 68 57 1.7 2.6 0.00 0.00 0.00 81 1018.7
20260505032555 68 82 0.9 1.7 0.00 0.00 0.00 79 1018.8
20260505031554 68 90 0.0 2.6 0.00 0.00 0.00 79 1018.6
20260505030553 69 68 1.7 2.6 0.00 0.00 0.00 78 1018.8
20260505025551 69 209 0.9 4.3 0.00 0.00 0.00 78 1018.8
20260505024547 69 120 1.7 4.3 0.00 0.00 0.00 77 1018.8
20260505023547 70 97 0.0 5.2 0.00 0.00 0.00 76 1018.5
20260505022542 70 18 2.6 2.6 0.00 0.00 0.00 76 1018.5
20260505021541 70 96 2.6 3.5 0.00 0.00 0.00 76 1018.5
20260505020538 71 148 1.7 2.6 0.00 0.00 0.00 75 1018.4
20260505015538 71 102 3.5 5.2 0.00 0.00 0.00 74 1018.2
20260505014537 71 70 2.6 4.3 0.00 0.00 0.00 74 1018.2
20260505013537 71 109 2.6 4.3 0.00 0.00 0.00 72 1018.0
20260505012533 71 94 4.3 6.1 0.00 0.00 0.00 72 1017.8
20260505011531 72 120 1.7 6.1 0.00 0.00 0.00 71 1017.6
20260505010529 72 90 3.5 4.3 0.00 0.00 0.00 70 1017.6
20260505005528 72 106 1.7 6.1 0.00 0.00 0.00 69 1017.6
20260505004523 73 90 0.9 5.2 0.00 0.00 0.00 68 1017.4
20260505003522 73 85 2.6 2.6 0.00 0.00 0.00 68 1017.1
20260505002520 74 121 0.0 4.3 0.00 0.00 0.00 67 1017.2
20260505001517 74 154 0.9 6.1 0.00 0.00 0.00 65 1017.3
20260505000517 75 240 0.9 3.5 0.00 0.00 0.00 64 1017.0
20260504235517 75 115 3.5 5.2 0.00 0.00 0.00 63 1016.8
20260504234516 76 137 3.5 7.0 0.00 0.00 0.00 63 1016.4
20260504233514 77 138 2.6 3.5 0.00 0.00 0.00 61 1016.7
20260504232514 77 85 1.7 7.0 0.00 0.00 0.00 60 1016.7
20260504231514 78 93 2.6 5.2 0.00 0.00 0.00 58 1016.4
20260504230513 78 67 1.7 7.0 0.00 0.00 0.00 58 1016.2
20260504225508 79 166 0.0 7.0 0.00 0.00 0.00 57 1016.5
20260504224508 80 90 5.2 6.1 0.00 0.00 0.00 56 1016.4